Regional Weather Roundup
Issued by NWS

Home | Current Version | Previous Version | Text Only | Print | Product List | Glossary On
Versions: 1 2 3 4 5 6 7 8 9 10 11 12 13 14 15 16 17 18 19 20 21 22 23 24 25 26 27 28 29 30 31 32 33 34 35 36 37 38 39 40 41 42 43 44 45 46 47 48 49 50
000
ASUS42 KKEY 060310
RWRKEY

FLORIDA REGIONAL WEATHER ROUNDUP FOR THE FLORIDA KEYS
NATIONAL WEATHER SERVICE KEY WEST FLORIDA
1100 PM EDT SUN JUL 05 2015

...SOUTH FLORIDA AND THE KEYS...

CITY           SKY/WX    TMP DP  RH WIND       PRES   REMARKS
FORT MYERS     RAIN      73  72  96 E6        30.25R
SW REGIONAL AP RAIN      73  71  93 E12       30.24R
NAPLES         NOT AVBL
MIAMI          PTCLDY    85  75  72 E9        30.17R HX  93
WEST KENDALL   CLOUDY    83  76  79 E8        30.17R HX  91
HOMESTEAD      NOT AVBL
MARATHON       PTCLDY    85  76  74 E6        30.14R HX  94
BOCA CHICA NAS PTCLDY    85  76  74 E9        30.14R HX  94
KEY WEST INTL  PTCLDY    85  78  80 E7        30.14R HX  96

...INTERNATIONAL WEATHER...

CITY           SKY/WX    TMP DP  RH WIND       PRES   REMARKS
NASSAU BAHAMAS NOT AVBL
CANCUN MEXICO  PTCLDY    82  81  94 NE5       30.06R HX  95
COZUMEL MEXICO PTCLDY    77  77 100 CALM      30.06R

ADJACENT COASTAL WATERS...

STATION/POSITION TIME  SKY/WX   TEMP    WIND        PRES    WAVE
                                AIR SEA DIR/SP/G            HT/PER
                 (UTC)          (F)     (DEG/KT/KT) (MB)    (FT/S)
PULASKI SHOAL LI 0200            85     110/ 11/ 12 1020.0R
SAND KEY         0250            85      90/ 13/ 15 1020.3R
SOMBRERO KEY     0200            84     120/ 12/ 12 1020.9R
LONG KEY         0200            85 88  130/ 10/ 11 1021.3R
MOLASSES REEF    0200            84 86   80/  7/  8 1020.7R
FOWEY ROCKS      NOT AVBL

$$



USA.gov is the U.S. government's official web portal to all federal, state and local government web resources and services.